Location: ??????????
(48.5701°N, 37.7703°E)
Time: 22:27:02
(UTC+00:00)

Cosmos 1980 Rocket - Pass Details

Date: 14 July 2020
Orbit: 828 x 851 km, 71.0° (Epoch: 10 August)

Event Time Altitude Azimuth Distance (km) Brightness Sun altitude
Rises 23:58:09 0° 331° (NNW) 3,429 5.8 -12.8°
Reaches altitude 10° 00:00:37 10° 331° (NNW) 2,489 5.0 -12.6°
Maximum altitude 00:06:21 88° 247° (WSW) 857 2.2 -12.1°
Drops below altitude 10° 00:12:02 10° 155° (SSE) 2,465 4.4 -11.5°
Sets 00:14:28 0° 155° (SSE) 3,393 5.1 -11.3°
